Theta_e
329 329 329 329 328 328 327 326 325 324 324 324 324 323 323 323 323 322 321 321 321 320 319 319 321 323 322 319 317 315 314 316 320 320 317 316 316 316 318 318 318 318 321 324 326 325 325 325 325 325 323 323 324 324 323 320 318 318 318 317 314 314 316 316 315 315 312 310 311 308 305 304 305 306 305 305 304 305 306 306 306 306 306 306 306
328 328 327 327 327 327 326 325 324 323 324 324 324 323 323 323 321 320 320 320 319 318 319 319 320 321 320 317 316 314 313 315 319 319 316 315 315 315 315 315 315 315 317 321 324 325 325 325 325 324 323 323 323 323 322 320 318 319 318 318 317 315 315 315 315 315 313 311 311 309 306 305 306 307 306 307 307 306 307 306 306 306 306 306 306
327 327 326 325 325 325 325 324 323 323 323 323 323 323 323 322 320 318 319 320 318 318 319 318 318 319 318 316 315 314 314 315 318 317 315 314 314 314 314 314 314 314 314 316 319 322 324 324 324 323 322 322 323 323 321 319 319 320 319 319 318 317 316 315 314 314 314 314 312 311 309 307 308 308 307 308 307 307 307 307 306 306 306 306 306
326 326 325 324 323 323 323 323 323 323 323 322 322 323 323 322 319 318 319 319 318 318 318 318 317 317 316 315 314 314 314 315 316 315 315 315 314 314 314 313 313 314 313 313 313 316 319 322 323 322 321 321 322 321 321 319 319 321 321 320 319 319 318 317 315 314 314 314 312 311 311 310 310 310 309 308 307 307 308 309 308 307 307 307 306
326 325 324 323 322 322 322 322 322 322 321 321 322 323 323 321 319 318 318 318 317 318 318 318 317 317 316 315 313 313 313 314 314 314 314 315 315 315 315 314 314 314 314 314 313 313 314 316 318 319 320 321 321 322 321 321 321 321 322 321 320 320 319 318 316 315 313 314 312 311 311 311 311 310 309 308 308 308 309 309 309 308 308 307 306
325 325 324 324 323 322 321 321 321 321 321 321 322 323 322 321 319 318 318 317 316 317 317 318 317 316 316 315 314 313 313 313 314 314 314 314 315 316 316 315 315 314 314 313 314 313 313 313 314 315 316 317 318 319 320 320 320 319 318 318 317 316 317 317 316 315 314 314 313 310 309 310 311 310 309 309 310 309 309 309 308 308 308 307 307
325 324 325 325 324 322 321 321 321 321 322 322 322 321 321 320 319 318 318 317 316 316 316 317 317 316 316 316 315 314 314 314 314 314 314 314 315 315 315 315 314 314 314 314 313 313 312 313 313 313 314 314 314 315 315 315 315 315 314 315 314 313 313 315 315 315 315 315 313 311 310 310 311 311 309 308 309 310 310 310 310 309 308 308 308
323 323 323 323 322 321 321 321 321 321 321 321 321 320 320 320 319 318 318 317 316 316 316 315 315 315 316 316 315 315 314 314 314 314 314 314 315 315 315 315 315 314 314 314 313 313 313 313 313 313 313 313 313 313 314 314 314 314 314 314 314 313 312 313 315 315 315 315 313 312 312 311 310 311 310 308 309 310 310 310 311 311 309 308 308
322 322 321 321 320 320 320 320 320 320 320 320 319 319 319 319 318 317 317 317 316 315 315 315 315 315 315 316 315 315 314 315 315 315 315 315 315 315 315 315 315 314 314 314 314 313 314 314 315 315 314 314 314 314 315 316 316 315 315 315 315 314 312 312 313 314 314 315 314 313 312 312 311 311 310 309 309 311 310 309 311 312 310 308 307
321 321 321 320 320 320 319 318 318 318 318 317 317 318 318 318 318 317 317 316 316 316 316 316 316 316 316 315 315 315 315 315 315 315 316 316 316 316 315 314 314 314 314 314 314 314 314 314 315 316 316 316 316 316 317 317 317 317 317 316 315 314 312 311 312 313 314 314 314 313 312 312 312 312 311 310 310 310 310 309 311 311 310 309 308
320 320 320 320 320 319 318 317 316 316 315 315 316 316 316 316 316 316 315 315 317 318 317 316 316 317 317 317 316 315 315 315 315 315 316 316 316 316 316 315 315 315 315 315 315 315 315 315 315 315 316 316 317 317 317 317 317 318 318 318 317 316 314 313 312 312 312 313 313 313 312 313 313 311 311 311 310 309 309 310 311 311 310 311 310
318 318 318 319 319 318 317 316 316 315 315 315 317 317 316 315 315 314 314 314 317 318 317 314 316 317 317 318 318 317 317 317 317 316 316 316 317 317 317 316 316 315 316 316 316 316 316 317 317 317 316 317 317 317 317 318 318 318 318 318 318 318 316 315 314 312 312 312 313 313 312 313 314 311 309 310 309 308 309 311 312 311 311 312 312
317 317 317 318 318 318 317 317 316 316 316 316 317 318 317 316 316 316 316 316 318 319 318 317 318 318 318 318 318 317 317 317 317 317 317 317 317 317 317 317 317 316 316 317 317 318 318 318 318 318 318 318 318 318 318 318 318 319 318 318 318 318 317 316 315 314 313 313 314 314 313 313 314 312 309 308 308 308 309 311 312 312 312 312 312
314 315 316 317 317 317 317 317 317 318 318 318 318 318 318 318 317 318 318 318 318 319 319 318 319 318 318 317 317 317 317 317 317 317 317 317 317 317 317 317 318 318 317 318 318 318 318 319 319 319 319 319 319 319 320 320 320 319 319 318 318 317 317 317 316 315 314 314 314 315 315 313 313 312 311 310 309 309 311 312 312 312 311 311 310
309 311 313 315 316 317 317 317 318 318 319 319 319 319 319 319 320 320 319 320 320 319 319 319 319 318 318 318 318 318 318 318 318 318 318 318 318 318 318 318 318 318 319 319 319 319 319 320 320 320 320 319 319 320 320 320 320 319 319 318 319 318 317 317 316 316 315 314 314 314 314 314 313 313 313 311 309 309 311 311 311 310 309 308 307
305 306 307 309 311 314 315 316 317 317 318 318 318 318 319 319 320 320 320 320 320 320 319 318 318 318 318 318 318 319 319 318 318 318 319 318 318 318 319 319 319 319 319 319 319 319 319 319 319 319 319 319 319 320 320 319 318 318 317 318 318 318 318 317 317 316 315 314 314 314 314 314 313 313 313 312 311 310 310 309 309 308 308 306 305
301 302 303 304 306 308 309 311 312 313 314 315 315 315 316 317 317 319 319 320 320 320 320 319 318 318 318 318 319 319 319 319 319 319 318 318 318 317 318 318 319 319 318 318 318 318 318 319 319 319 319 319 319 319 319 318 317 317 317 317 317 317 318 317 316 315 314 314 315 315 314 314 313 314 313 311 310 309 309 308 307 307 307 306 305
300 301 301 302 303 304 304 305 306 307 308 308 308 308 309 309 310 312 314 315 315 316 316 316 316 317 317 318 319 319 319 318 318 319 319 318 317 317 317 317 318 319 319 319 319 319 319 319 319 318 318 318 318 318 318 317 317 317 317 317 317 317 317 317 316 314 313 313 314 313 313 313 312 312 311 309 309 309 309 309 308 307 307 308 306
299 299 300 300 301 302 302 303 303 304 304 304 303 304 304 304 304 305 306 307 307 308 310 311 310 310 311 312 313 314 314 313 314 314 316 317 318 318 317 318 318 319 319 319 319 319 319 319 319 319 319 319 318 318 318 317 317 317 318 318 317 317 316 316 315 313 313 312 312 312 312 312 310 309 309 309 309 309 308 307 307 306 306 306 305
298 299 299 299 300 300 300 301 301 301 302 303 303 303 303 304 304 304 304 304 304 305 305 306 306 306 306 307 307 308 308 309 309 309 311 313 315 316 317 317 317 317 317 317 317 317 316 317 317 317 318 318 318 318 318 317 317 317 317 317 317 316 316 315 315 313 311 311 311 311 311 310 308 308 307 306 305 305 305 304 304 304 305 304 304
298 298 299 299 299 299 299 299 299 300 300 301 301 302 303 303 304 304 304 305 305 305 305 305 304 304 304 304 304 304 305 305 306 307 308 309 310 311 313 313 314 315 315 315 315 315 315 315 315 315 316 317 317 317 317 317 317 317 317 316 316 315 315 314 314 312 310 310 310 310 309 308 306 305 304 303 302 302 303 302 302 302 303 303 303
297 298 298 298 298 298 298 298 298 299 299 299 300 300 300 301 302 302 303 303 304 305 305 304 304 303 303 303 303 303 302 303 304 304 305 306 307 308 308 309 310 311 312 312 313 313 314 314 314 315 315 316 316 316 316 315 315 316 316 316 315 314 313 313 312 310 308 308 306 305 304 303 302 302 302 302 302 302 302 301 300 300 300 300 300
296 297 297 297 297 297 297 297 297 298 298 298 298 299 299 299 300 300 300 301 301 301 301 301 301 301 301 301 301 301 301 301 301 302 303 304 305 305 306 306 307 307 308 309 309 310 311 311 312 312 313 313 314 315 314 313 312 312 314 314 314 314 313 312 311 310 308 306 304 301 300 300 300 300 300 300 300 300 299 299 298 297 297 297 296
296 296 296 296 296 296 296 297 297 297 297 297 297 297 297 298 298 298 299 299 299 299 299 299 300 300 299 299 299 299 299 299 300 300 301 302 303 304 304 305 305 305 305 305 306 306 306 307 307 308 308 309 309 310 310 310 309 309 310 312 314 314 313 311 310 309 307 304 303 301 301 301 301 300 299 299 298 298 297 297 296 296 295 294 293
294 294 294 294 295 295 295 295 296 296 296 296 297 297 297 297 297 297 297 297 298 298 298 298 298 299 299 299 298 298 298 298 299 299 299 300 301 302 303 304 305 305 305 305 305 305 305 305 305 306 306 306 306 306 306 306 306 306 308 310 312 312 312 310 309 307 305 302 302 302 302 301 301 300 299 298 297 296 296 296 295 294 293 292 292
294 294 294 294 294 294 294 294 294 294 295 295 295 295 296 296 296 296 296 296 297 297 297 297 298 298 298 298 297 297 297 297 298 298 298 298 299 299 300 301 302 303 304 304 305 305 305 306 306 305 305 305 304 304 304 304 305 305 306 308 309 309 309 310 308 306 303 302 302 303 302 301 300 299 298 297 296 295 295 294 293 292 291 292 292
294 293 293 293 293 294 294 293 294 294 293 294 294 294 294 295 295 295 295 295 296 296 296 296 297 297 297 297 296 296 297 297 297 297 297 297 298 298 298 299 299 300 300 301 303 304 305 305 305 304 304 303 303 303 303 303 304 304 305 306 306 306 307 308 307 304 303 302 302 302 301 299 298 297 296 296 295 295 294 293 292 291 291 292 292
293 293 293 293 293 293 293 293 293 293 293 293 293 293 293 293 294 294 294 294 294 295 295 296 296 296 296 296 296 297 297 297 296 296 296 296 296 297 297 297 298 298 299 299 300 301 302 303 303 303 302 301 301 302 302 303 303 303 304 304 305 306 307 306 305 303 302 302 301 300 298 297 296 295 294 294 294 293 293 292 291 291 291 292 292
294 294 294 294 293 293 293 293 293 293 293 292 292 291 291 292 293 293 292 292 292 293 294 294 294 294 294 295 295 296 297 297 295 294 295 295 295 296 296 297 297 298 298 298 299 300 301 302 302 302 301 300 300 301 301 302 302 303 303 303 304 305 305 304 302 302 302 301 301 299 297 296 295 294 293 293 292 292 292 291 291 291 291 291 292
295 294 294 294 294 294 294 293 293 292 292 292 292 292 291 291 291 291 291 291 291 291 292 292 293 293 293 294 294 294 294 294 294 294 294 295 295 295 296 296 297 297 298 298 299 299 300 301 302 301 300 300 300 300 301 301 301 301 301 301 302 302 302 301 300 301 301 301 300 298 296 295 294 293 293 293 292 292 291 291 291 291 291 292 292
295 294 294 294 293 293 294 293 293 292 292 292 292 293 293 292 291 290 290 290 290 291 291 291 292 292 292 293 293 293 293 293 293 294 295 295 295 296 296 296 297 297 297 298 299 299 300 301 301 300 299 299 299 299 300 300 300 300 300 301 300 300 300 300 300 300 299 298 297 296 295 294 293 293 293 292 292 292 291 291 291 291 291 292 292
295 294 294 293 293 293 293 293 293 293 292 292 293 293 293 293 293 291 290 290 291 291 292 292 292 292 292 293 293 294 294 294 295 295 295 296 296 297 297 297 297 297 298 298 299 299 300 300 301 300 299 299 299 298 298 299 299 299 300 300 299 299 299 299 299 299 298 298 296 295 294 294 293 293 293 292 292 292 291 291 291 291 291 292 292
295 294 294 293 293 293 293 293 293 293 293 293 293 292 292 292 292 292 292 292 292 292 292 292 293 293 293 293 294 294 294 295 295 295 296 296 297 297 297 297 298 298 298 298 299 299 300 300 300 300 299 299 299 298 297 298 298 298 299 298 298 298 299 299 298 298 298 297 295 294 293 293 293 293 293 292 292 291 291 291 291 291 291 292 291
294 294 293 293 293 293 293 293 293 293 293 292 292 291 291 291 291 291 292 292 292 293 292 293 293 293 293 294 294 294 295 295 295 295 296 296 296 297 297 297 298 298 298 298 299 300 300 300 300 300 299 299 298 298 297 297 297 297 297 297 297 297 298 297 297 296 296 295 294 294 294 294 293 293 292 292 291 291 291 291 291 291 291 291 291
293 293 293 293 293 293 292 292 293 292 292 292 291 291 290 290 290 290 291 291 291 292 292 293 293 293 294 294 294 294 295 295 295 295 296 296 296 297 297 297 297 297 297 298 298 298 298 298 299 299 298 298 298 297 297 297 297 296 296 296 295 296 295 295 295 295 295 294 294 294 294 293 293 292 292 291 291 291 291 291 291 291 291 291 291
293 293 293 292 292 293 292 292 292 292 292 292 291 291 290 290 290 290 290 290 290 291 291 292 293 293 294 294 294 295 295 295 295 295 296 296 296 296 296 296 296 296 297 297 296 296 297 297 297 298 298 297 298 298 297 296 296 295 295 295 294 294 294 294 294 295 295 294 294 294 293 293 292 292 291 291 291 291 290 290 290 290 290 290 290
293 293 293 292 292 293 292 292 292 292 292 292 291 291 291 290 290 290 290 290 290 290 291 291 292 293 294 295 295 295 295 295 295 295 295 296 296 296 296 296 296 295 296 295 295 296 296 296 296 297 297 297 297 298 297 296 295 294 293 294 294 294 294 294 294 294 294 294 293 293 292 292 292 291 291 291 290 290 290 289 289 290 289 289 290
293 293 292 292 292 293 293 292 292 292 293 292 291 291 291 290 290 290 290 290 290 290 291 291 290 291 292 294 295 296 295 295 295 296 296 296 296 296 296 295 294 294 294 294 294 294 295 295 295 295 296 296 296 297 296 295 294 293 293 293 294 293 293 293 293 294 294 293 293 292 292 292 291 291 291 290 289 289 289 289 289 290 290 290 290
293 292 292 292 292 292 292 292 292 292 293 292 292 291 291 290 290 290 290 290 290 290 291 291 290 290 290 292 294 295 295 295 296 296 296 296 296 295 295 294 294 293 292 292 292 292 293 293 293 293 294 295 295 295 294 294 294 293 292 293 293 293 292 293 293 294 293 293 292 292 291 291 291 291 290 289 289 289 289 289 289 290 290 290 290
293 293 292 292 292 292 292 292 292 292 292 292 292 291 291 291 290 290 290 290 290 290 290 290 290 289 289 291 293 294 294 295 296 296 296 295 295 295 294 294 293 292 292 291 291 291 291 291 291 291 292 292 293 294 294 294 293 293 292 293 293 293 293 293 293 293 292 292 292 291 291 291 290 289 289 289 289 289 289 289 289 289 290 290 290
294 293 292 292 292 292 292 292 292 292 292 292 292 291 291 291 290 290 290 290 290 290 290 290 289 289 290 292 293 294 294 294 295 295 295 295 294 294 293 292 292 291 291 291 291 291 292 291 291 291 291 291 291 292 293 293 293 292 292 292 292 293 293 293 293 292 292 291 291 291 290 290 289 289 289 289 289 289 289 289 289 289 289 290 290
294 293 292 292 292 292 292 292 292 292 292 292 292 292 291 291 291 291 290 290 290 290 290 290 289 289 290 292 293 294 294 294 294 294 294 294 293 292 291 291 291 290 291 291 292 292 293 292 292 291 291 291 291 291 291 291 291 291 291 291 291 292 292 292 292 292 291 291 290 290 290 289 289 289 289 289 289 289 289 289 289 289 289 290 290
294 294 293 292 292 292 292 292 292 292 292 292 292 292 292 291 291 291 290 290 290 290 290 290 289 290 291 292 293 293 293 293 293 293 293 292 291 290 290 291 290 290 291 292 293 293 293 293 292 292 291 290 290 290 290 290 290 290 290 290 290 291 291 291 291 291 290 290 290 290 289 289 288 288 289 289 289 289 289 289 289 290 290 290 290
294 294 293 292 292 292 292 292 292 291 291 291 292 292 292 291 291 291 291 291 290 290 289 289 289 289 290 291 292 292 292 292 292 292 292 291 290 290 291 291 291 292 293 293 293 293 293 292 292 292 291 291 291 291 291 291 291 291 291 291 291 291 291 291 291 291 290 290 290 289 289 288 288 288 288 288 289 289 289 289 289 289 289 289 289
294 294 293 293 292 292 292 291 291 291 291 292 292 292 292 292 291 291 291 290 290 290 289 289 289 289 289 290 290 290 290 291 291 291 290 289 289 290 291 292 292 293 293 292 292 292 292 292 291 291 291 291 291 291 291 291 291 291 291 291 291 291 291 291 291 290 290 289 289 288 288 288 288 288 288 288 288 289 289 289 289 289 289 289 289
294 294 294 293 293 293 292 292 291 291 291 292 292 292 292 292 291 291 291 290 290 290 290 289 289 289 289 289 289 290 290 290 291 291 290 290 290 290 291 291 291 292 291 291 291 291 290 290 290 290 290 290 290 290 290 290 290 290 290 290 290 290 290 289 289 288 288 288 288 288 288 288 288 288 288 288 288 288 288 288 289 289 288 289 289
293 294 294 294 293 293 292 292 292 291 291 291 291 291 292 291 291 291 291 290 290 290 290 290 289 289 289 289 289 289 289 290 290 290 290 290 289 289 289 289 289 289 289 289 289 289 288 288 288 288 288 288 288 288 288 288 288 288 288 288 288 288 287 287 287 287 288 288 288 288 288 288 288 288 288 288 288 288 288 288 289 288 288 288 289
290 291 293 294 293 293 293 292 292 292 291 291 290 290 291 291 291 291 291 290 290 290 290 291 290 290 289 289 289 289 289 289 289 288 288 288 288 288 288 288 288 288 288 288 288 288 288 288 287 287 287 287 287 287 287 287 287 287 286 286 287 286 286 286 287 287 288 288 288 288 288 288 288 288 288 288 288 288 288 288 289 289 288 289 289
289 290 291 293 293 294 293 293 292 292 292 291 291 291 291 291 291 291 291 291 291 291 291 291 291 291 290 290 290 290 290 290 289 289 289 289 289 289 289 289 289 289 289 289 289 289 288 288 287 287 287 287 287 287 287 287 287 287 286 286 286 286 286 287 287 288 288 288 288 288 288 288 288 288 288 288 288 288 288 288 288 289 288 289 289
290 291 291 292 293 293 293 293 293 292 292 291 291 291 291 291 291 291 291 291 291 291 291 291 291 291 291 290 290 290 290 290 290 289 289 289 289 289 289 289 289 289 289 289 289 288 288 287 287 287 287 287 287 287 287 287 287 287 286 286 286 286 287 287 288 288 288 288 288 288 288 288 288 288 288 288 288 288 288 288 288 288 288 289 289
290 292 292 292 292 293 294 293 293 293 292 292 292 291 291 291 291 291 291 291 291 291 291 291 290 290 290 290 290 289 289 289 289 289 289 288 288 288 288 288 288 288 287 287 287 287 287 286 286 286 286 286 287 287 287 286 286 286 287 287 287 287 288 288 288 288 288 288 288 288 288 288 288 288 288 288 288 288 288 288 288 288 288 289 289
Wind_Speed
25 24 23 22 23 24 23 22 22 21 20 20 18 17 16 14 13 13 13 13 11 11 11 11 12 13 12 9 7 6 5 5 7 6 5 6 7 7 6 6 6 7 7 8 8 9 9 9 9 9 8 8 10 11 13 17 17 11 9 8 5 6 7 3 5 9 10 9 9 10 14 17 15 15 16 18 20 19 18 17 15 14 13 11 9
26 24 23 23 23 24 23 23 23 22 21 19 18 17 16 13 12 12 14 13 11 10 12 12 12 13 11 9 7 6 6 6 8 7 5 6 7 6 5 5 6 7 8 8 9 9 10 10 10 9 8 8 10 11 13 15 14 11 9 8 5 5 6 4 4 8 10 10 10 11 15 16 14 15 17 17 18 18 15 15 15 13 12 11 9
25 24 23 23 23 24 24 23 23 21 20 19 18 17 15 13 12 13 14 13 11 11 12 12 12 12 10 9 7 7 6 7 7 6 6 7 6 5 4 3 4 6 7 8 8 8 8 9 9 9 9 10 11 11 13 13 12 9 9 9 8 6 6 5 3 6 9 10 11 11 14 15 13 14 16 15 16 16 12 12 13 12 12 10 9
25 24 23 23 22 23 23 22 22 21 20 19 18 16 14 12 12 13 13 12 11 11 12 12 11 11 10 8 7 7 6 6 6 6 5 5 5 4 3 3 3 5 5 6 7 7 7 7 8 8 9 9 10 11 12 13 11 9 9 10 10 10 10 8 6 6 7 9 11 11 13 15 14 13 15 16 17 16 12 11 12 12 12 12 10
26 25 23 22 22 21 21 21 21 20 19 19 17 16 14 12 12 12 11 10 11 12 12 11 10 10 9 8 8 8 7 6 5 6 5 5 5 4 5 5 5 6 6 6 7 7 6 6 6 6 6 7 9 10 11 12 12 11 10 10 10 11 12 12 9 8 8 10 12 12 12 14 13 13 15 16 16 16 14 13 13 12 13 13 12
25 25 23 22 22 21 20 20 20 20 19 18 17 16 15 13 12 12 11 10 11 11 11 10 9 8 7 7 8 8 7 6 5 5 5 5 5 5 5 5 5 6 6 6 6 6 6 6 5 5 5 5 7 8 9 10 10 11 11 9 8 9 11 11 11 10 10 10 11 14 15 14 14 14 16 17 15 15 15 14 14 15 16 15 14
20 20 20 20 21 20 19 19 20 20 19 18 17 16 15 14 12 11 10 9 10 10 9 8 7 7 6 6 8 7 7 7 6 5 5 5 5 4 4 4 4 4 5 5 5 5 5 5 4 4 4 4 5 5 5 6 6 6 7 6 6 6 7 9 10 11 11 10 10 13 15 16 15 13 16 19 16 14 14 14 14 16 17 15 13
16 16 16 17 17 18 18 18 18 18 17 16 14 13 13 13 11 9 9 9 9 9 8 6 6 6 5 5 6 7 7 7 6 5 4 4 3 3 3 3 3 4 3 3 2 3 3 3 3 4 4 4 4 5 4 4 4 4 5 5 6 6 6 7 9 11 11 11 11 11 13 16 16 14 15 18 17 15 16 16 13 12 15 15 13
15 15 14 14 14 15 16 16 16 16 16 15 14 13 12 11 10 8 7 7 7 7 7 6 5 4 4 4 5 6 7 6 5 4 3 2 1 2 3 4 4 4 3 3 2 2 2 2 2 2 3 4 4 4 4 3 2 3 3 4 5 6 6 7 7 9 10 11 11 11 11 14 16 16 16 19 19 16 18 19 13 10 11 12 12
15 15 14 13 14 15 16 17 18 18 18 18 17 15 12 10 9 7 6 6 5 5 5 5 3 1 2 3 4 5 5 5 4 4 3 3 3 3 3 5 5 5 5 4 4 4 4 4 4 4 3 4 4 3 3 2 2 2 3 4 5 6 7 8 8 8 9 11 11 11 12 13 16 18 19 21 22 19 18 19 14 11 11 10 10
16 16 15 14 14 16 18 20 21 20 20 20 18 15 11 7 7 6 5 3 4 6 5 2 2 3 4 3 3 4 5 5 4 5 5 5 5 5 5 6 6 6 6 6 5 5 5 5 6 7 6 6 5 5 5 4 4 4 5 5 5 6 7 8 10 10 10 11 10 11 13 13 16 20 20 20 22 22 20 18 15 14 14 12 10
16 16 15 14 14 15 16 17 17 16 16 15 14 11 7 7 8 8 7 6 6 6 5 2 4 7 7 5 4 4 5 5 5 6 7 8 8 8 7 7 8 8 8 7 6 6 6 6 7 7 8 9 8 8 8 7 7 7 8 8 8 8 9 9 10 12 13 13 12 13 15 15 15 21 23 22 23 24 21 18 16 16 15 14 10
19 16 14 13 12 11 12 12 11 9 8 9 9 8 8 9 10 10 9 7 6 4 3 4 7 9 9 8 6 6 5 5 6 7 8 10 11 11 11 10 10 10 9 8 8 8 8 9 9 10 10 11 11 10 10 9 10 10 10 11 11 11 12 12 13 14 15 15 15 16 18 18 17 20 24 24 25 24 22 18 16 16 14 12 10
23 20 17 15 13 11 10 11 10 9 8 7 7 7 7 7 6 6 7 6 5 3 4 5 7 8 8 8 7 6 5 5 7 8 9 10 11 12 13 13 12 11 11 11 11 10 10 11 12 13 13 13 13 12 12 12 12 12 12 12 13 14 15 16 17 17 18 18 17 17 19 20 19 20 22 23 24 24 21 18 17 16 14 12 11
27 24 21 18 16 15 13 13 13 12 11 11 10 10 9 9 8 7 7 7 6 5 5 5 5 5 6 6 5 4 3 2 3 4 5 6 7 8 10 11 11 12 12 12 11 11 11 12 14 14 15 15 15 14 13 13 14 14 14 14 15 16 17 18 20 21 22 22 21 21 21 21 20 19 19 20 23 24 22 19 18 17 15 12 11
30 28 26 23 21 19 16 15 14 14 13 13 12 12 11 9 9 8 8 8 8 8 7 6 6 5 4 4 4 3 2 1 1 2 2 3 4 4 6 7 8 10 11 12 12 12 12 14 15 16 17 17 16 15 13 14 14 15 15 16 17 18 19 21 22 23 23 23 22 22 22 21 19 17 17 18 22 23 20 17 16 16 14 10 8
29 28 28 26 25 24 22 20 18 16 15 14 14 13 12 11 10 9 8 8 8 8 8 7 6 5 4 3 3 3 1 1 3 3 4 5 5 6 6 7 8 9 11 12 12 13 14 15 16 17 18 18 17 16 16 15 16 16 17 17 18 20 21 22 23 22 21 20 20 19 19 18 17 16 15 16 18 19 17 15 15 15 14 10 8
27 27 27 26 26 25 25 24 23 22 20 20 19 18 17 16 14 12 12 12 11 10 9 8 7 6 5 4 4 4 2 2 4 4 6 7 8 8 10 10 10 10 12 13 13 14 14 15 15 16 17 18 18 17 17 17 17 18 18 18 18 19 22 24 23 21 19 17 17 16 15 15 15 15 16 17 16 14 13 13 14 14 11 8 7
25 26 25 24 24 23 23 22 22 22 21 21 20 20 21 21 20 19 18 18 17 15 13 11 11 11 9 8 6 6 5 3 4 4 3 5 6 7 8 10 10 10 11 13 14 15 15 15 15 15 16 16 17 16 16 16 16 15 14 15 16 16 19 22 22 21 19 18 17 16 15 15 15 16 17 17 15 14 13 13 14 12 8 6 6
22 22 23 23 22 22 21 20 19 19 17 16 15 15 15 16 16 17 18 18 18 17 15 14 14 13 12 11 10 9 8 7 6 6 4 3 4 5 6 7 8 8 9 11 12 13 13 12 12 13 14 14 15 15 15 15 15 13 11 13 14 15 17 20 21 21 20 19 18 17 17 17 17 17 16 14 13 13 12 11 11 9 6 5 7
18 19 19 20 20 20 20 20 19 18 17 15 14 13 12 11 10 10 10 10 9 9 9 9 9 9 9 10 11 11 10 9 8 8 7 6 5 5 5 5 6 7 8 8 9 10 10 10 9 10 11 11 12 13 13 13 14 14 13 13 14 15 16 17 18 19 20 19 19 19 20 20 18 16 14 13 12 11 10 10 10 8 5 4 5
16 17 17 17 18 18 18 17 17 17 16 14 14 14 14 13 12 11 9 8 7 6 5 4 4 4 4 5 6 8 9 8 8 8 8 7 6 5 5 6 6 7 7 7 7 7 9 9 10 10 10 10 10 11 12 12 13 14 15 16 16 16 16 16 15 17 19 18 17 17 17 17 15 14 14 13 12 11 10 9 9 9 7 6 4
16 17 17 17 16 16 15 15 15 15 14 13 13 13 13 12 12 11 11 10 10 9 8 6 5 6 6 6 5 5 6 6 7 8 9 8 7 6 6 6 6 6 7 7 8 8 9 10 12 12 12 11 11 11 11 12 12 13 14 16 17 16 16 15 15 17 19 19 19 18 16 14 13 12 12 12 13 13 12 11 10 8 6 4 3
17 17 17 17 16 15 15 14 13 13 12 11 11 12 11 10 10 10 9 9 9 9 8 8 7 7 8 9 9 8 8 8 8 9 9 9 9 8 8 7 7 7 7 7 8 9 10 11 12 13 13 13 13 12 12 11 11 11 12 13 15 16 16 15 15 17 21 22 22 21 19 17 16 14 14 14 14 14 13 11 8 5 3 1 1
18 18 18 17 16 15 14 14 13 12 11 11 11 11 10 10 10 9 9 8 8 8 8 8 7 7 7 8 9 9 8 8 9 9 9 9 9 9 9 9 9 9 8 8 8 8 9 10 12 13 14 14 14 14 14 12 11 10 10 11 13 15 16 15 16 21 24 24 24 24 21 20 19 18 16 16 14 12 10 8 5 3 2 1 1
19 18 18 17 15 14 13 13 13 12 12 11 11 11 10 9 9 9 8 8 8 7 7 7 7 7 7 7 8 8 8 9 9 9 9 9 9 9 9 10 10 10 9 9 9 8 9 10 11 12 13 14 14 14 14 13 11 9 8 7 10 13 15 17 20 25 28 28 27 26 24 22 21 20 19 17 15 11 8 6 4 3 3 3 3
17 17 16 15 15 15 14 13 12 12 12 11 10 10 10 8 8 7 7 6 6 5 5 5 5 5 6 7 8 8 8 9 9 10 10 9 9 10 10 11 11 11 11 11 10 10 9 9 10 11 12 13 13 13 12 11 9 7 6 7 8 10 15 19 22 26 29 30 28 27 26 25 24 22 21 18 16 13 9 6 5 4 4 4 4
16 15 15 14 15 14 14 14 13 11 11 10 9 9 9 7 7 6 6 5 4 3 3 3 3 4 4 6 7 8 7 7 9 10 11 11 11 11 11 12 13 13 13 12 12 11 11 11 11 11 12 12 12 11 10 9 8 6 7 9 11 13 18 22 24 26 29 30 28 28 28 27 25 23 20 17 16 14 11 9 7 6 5 4 3
14 14 13 13 13 13 13 14 14 13 12 10 9 9 8 7 6 5 5 4 3 2 2 2 2 3 4 5 6 7 7 7 9 10 11 11 12 12 13 13 14 14 13 12 11 11 11 11 11 10 10 11 10 9 8 8 8 7 8 11 14 17 20 23 26 28 29 29 28 28 29 28 27 24 21 17 15 13 11 9 8 7 5 3 2
11 12 11 12 12 11 11 11 12 13 12 11 9 8 9 8 6 4 3 3 2 2 2 2 2 3 4 4 5 7 8 10 10 10 10 11 12 13 13 14 14 14 13 12 10 9 10 10 9 8 8 9 8 7 7 7 6 6 8 10 12 15 17 19 23 28 29 28 29 31 31 30 27 24 21 18 16 13 10 9 8 7 4 2 2
11 12 12 12 13 12 11 11 12 12 12 12 10 9 8 8 8 7 5 3 2 2 1 0 1 3 4 4 5 6 8 9 9 9 9 10 11 12 13 13 14 14 13 11 8 7 7 8 7 7 8 8 7 7 7 6 5 5 8 9 10 13 17 19 22 27 28 27 29 30 29 26 24 22 19 17 15 13 11 10 8 6 4 3 3
9 10 10 11 12 12 11 10 11 11 11 11 10 10 9 8 9 9 8 7 6 4 2 2 2 2 4 5 5 5 6 7 7 8 8 9 10 11 11 12 12 11 11 9 7 6 6 6 5 6 6 7 6 6 6 6 6 6 7 8 9 13 17 20 23 27 28 27 26 25 24 23 21 19 16 14 14 13 12 10 8 6 4 4 3
7 7 7 7 9 10 9 8 8 8 9 9 9 8 8 7 8 8 8 8 8 6 5 5 5 5 7 7 7 7 7 7 7 8 9 10 11 11 11 10 9 9 7 6 5 5 5 5 5 5 6 6 7 7 7 8 8 8 8 6 8 13 17 19 21 24 25 25 25 25 23 22 19 16 14 13 13 12 10 8 7 6 4 4 3
7 6 6 6 6 7 7 7 6 6 6 7 7 6 6 6 6 6 6 7 7 7 7 7 6 7 8 8 8 8 8 8 8 8 9 10 11 11 11 10 9 8 6 4 3 4 5 5 5 5 6 7 8 8 8 9 10 12 12 9 10 14 17 18 20 23 24 24 25 24 21 18 16 14 13 13 12 10 8 6 5 4 4 3 2
7 6 7 7 6 6 6 6 6 6 5 5 6 6 5 5 5 5 5 6 6 6 6 6 6 6 7 7 7 7 7 7 7 8 8 9 10 11 11 10 9 8 7 5 4 5 5 5 6 7 7 8 9 10 9 9 10 12 12 11 11 13 16 18 21 24 25 24 23 20 17 15 13 12 11 11 10 8 6 5 4 3 3 2 2
7 6 7 8 8 7 8 7 7 7 7 6 6 6 5 5 5 5 5 5 5 5 5 5 6 7 8 7 7 7 7 8 8 8 9 9 10 10 10 10 9 8 7 6 6 6 6 6 6 7 7 8 9 10 10 9 10 11 11 11 11 13 16 19 21 23 23 21 18 16 14 13 12 10 9 9 8 6 5 5 4 4 3 2 1
8 7 7 8 8 8 9 9 10 10 10 8 6 6 6 6 5 5 5 5 5 5 5 6 7 8 10 10 10 9 9 9 8 9 9 9 11 14 15 14 12 10 8 8 8 7 7 7 7 7 6 6 7 7 8 8 8 7 8 9 10 12 16 18 20 21 19 16 15 14 12 12 11 10 9 8 7 6 6 6 5 5 4 2 1
10 9 8 8 9 8 8 10 11 13 12 10 7 7 7 6 6 6 6 6 6 6 7 8 8 9 10 12 12 11 11 13 14 14 15 15 17 19 19 18 17 14 11 10 10 9 8 8 8 7 7 7 6 5 5 6 6 6 7 8 8 11 15 17 17 15 13 13 14 13 12 11 11 10 8 8 7 8 8 7 5 4 3 2 1
10 10 9 9 9 8 8 10 12 13 13 11 9 8 8 7 7 7 7 8 9 8 8 9 9 9 11 12 13 13 14 16 17 18 18 19 19 19 19 20 21 18 14 12 11 11 10 10 9 8 9 8 7 6 5 4 4 5 6 7 9 13 16 15 12 10 11 13 13 12 11 11 11 9 7 7 8 9 9 8 5 4 2 1 1
8 9 9 9 8 8 8 9 10 11 13 12 10 9 10 10 8 8 9 11 11 10 9 9 9 9 11 13 13 14 15 17 17 17 18 18 18 18 19 20 21 20 18 16 15 15 15 14 13 13 12 11 10 8 7 5 3 3 6 8 11 15 16 13 10 10 12 12 12 12 11 11 9 7 6 8 9 9 8 6 4 3 1 1 1
6 8 9 9 8 7 7 8 9 10 11 11 11 10 10 10 9 9 11 13 13 11 10 9 8 9 12 13 13 13 15 15 15 15 15 15 16 17 17 16 16 16 16 17 18 19 19 19 19 18 16 15 13 11 10 8 5 2 6 9 12 15 15 13 12 12 12 11 10 11 10 8 6 6 7 8 8 7 6 4 3 1 0 2 2
4 6 7 9 8 7 6 7 8 9 10 11 12 11 10 8 9 12 13 14 14 12 10 8 8 10 12 13 12 13 15 15 13 13 14 14 14 14 13 12 11 11 11 13 16 18 19 20 21 21 20 19 17 15 12 10 7 5 5 9 12 15 15 14 13 12 10 9 8 7 6 5 5 6 8 8 6 5 3 2 1 0 1 2 2
2 4 6 8 8 8 8 7 7 7 8 10 11 11 10 9 9 11 12 13 14 13 11 9 10 12 13 13 13 14 15 15 14 14 15 13 11 10 10 9 9 9 11 12 14 15 16 17 19 19 19 20 19 18 16 14 12 11 10 11 12 14 14 12 10 9 8 7 6 5 4 3 4 6 8 7 5 3 2 1 0 1 1 2 2
3 3 4 6 7 8 8 8 8 8 8 8 9 10 10 10 9 10 11 13 13 13 11 10 11 13 14 14 15 16 16 15 15 15 14 12 9 9 9 9 9 10 12 13 14 14 15 15 16 16 16 16 16 16 16 15 14 14 13 12 12 11 11 9 8 7 6 5 4 3 2 2 3 5 7 7 4 3 1 1 1 1 2 3 3
5 4 3 4 5 6 7 8 8 8 8 7 7 9 10 11 11 11 11 12 12 12 12 12 13 14 14 15 16 16 15 15 15 14 12 10 9 9 9 10 11 12 12 13 13 13 14 14 14 14 14 14 14 13 13 13 13 12 12 11 10 10 9 7 6 4 3 2 2 1 1 2 3 4 6 6 4 3 2 1 1 1 2 3 3
7 6 4 3 3 4 5 6 7 7 6 6 6 7 9 10 10 10 11 11 11 12 13 13 14 15 15 16 17 17 17 16 16 15 13 12 12 12 13 13 13 12 13 13 13 13 13 13 13 13 13 13 13 12 12 11 11 11 10 9 8 7 6 4 3 2 1 1 2 2 2 3 4 4 5 5 4 4 3 2 1 1 2 3 4
6 7 7 5 4 3 3 3 5 6 6 7 7 6 7 8 9 9 9 10 11 13 13 13 13 14 15 15 16 16 16 16 16 16 15 15 15 15 14 13 13 13 13 12 12 12 12 12 13 13 12 12 12 11 11 10 9 9 8 7 6 5 4 3 2 2 1 1 2 2 3 4 4 4 4 4 3 3 4 4 3 2 3 4 4
6 7 9 9 7 5 3 2 3 4 5 6 7 7 6 7 8 8 8 8 10 11 10 9 10 11 13 14 15 15 15 16 16 15 15 15 15 14 13 13 12 12 11 10 10 10 11 11 11 11 11 10 10 9 8 7 7 6 6 5 4 4 3 3 2 2 2 1 1 1 3 4 5 4 3 3 4 4 4 5 5 4 3 4 4
7 6 8 11 11 8 6 4 3 3 3 4 6 6 6 6 6 6 6 7 7 7 7 7 7 7 9 10 11 11 11 11 11 10 10 10 11 11 11 10 9 9 9 8 9 9 9 10 10 10 9 9 8 8 7 6 5 4 4 4 3 3 3 3 3 3 3 3 3 4 4 5 4 3 2 3 4 4 4 4 4 5 4 4 4
7 7 8 11 13 12 9 7 5 3 3 3 4 4 4 5 5 5 5 5 5 5 5 5 6 6 7 7 8 7 7 7 7 7 8 8 9 9 9 9 8 8 8 8 8 8 8 9 8 8 8 7 7 7 7 7 6 6 6 6 5 4 4 4 4 4 4 4 4 4 3 2 1 2 3 5 5 5 5 4 4 5 4 3 4
7 7 8 9 13 14 13 10 8 6 5 4 3 3 3 3 3 4 4 4 4 4 4 5 6 7 7 7 8 8 8 8 8 9 9 9 8 8 8 8 8 8 7 7 7 7 7 8 8 8 8 8 8 8 9 9 9 9 9 8 7 7 6 5 5 5 5 4 3 2 1 1 2 3 4 5 5 5 5 5 5 5 5 4 4
Wind_Direction
177 182 187 190 192 192 193 193 190 188 188 186 187 187 182 178 178 175 173 175 171 165 165 164 166 168 165 157 143 130 132 143 147 145 140 141 128 106 96 98 98 92 94 108 118 124 135 142 146 148 150 161 172 175 179 184 187 188 185 175 151 148 164 153 125 144 160 165 156 162 172 171 168 168 164 162 162 161 161 162 161 158 158 156 153
178 181 184 188 192 193 193 191 190 188 186 186 187 186 182 178 175 171 170 171 169 166 165 162 161 163 159 152 141 129 127 140 151 155 157 152 136 114 106 102 96 91 91 100 110 118 125 131 136 139 143 155 163 169 177 184 190 195 197 190 173 158 167 164 141 152 164 169 166 170 177 178 178 179 176 172 171 172 172 173 173 172 172 171 172
179 180 182 186 190 192 192 190 189 186 184 185 187 185 182 178 170 164 165 167 165 165 164 160 158 158 153 145 141 137 134 141 153 160 160 154 146 135 126 120 110 101 92 93 100 112 124 132 138 139 140 150 161 170 179 188 194 199 208 213 213 208 197 190 181 171 166 169 174 178 181 185 188 186 186 186 184 183 185 188 188 188 189 188 191
177 179 182 184 186 188 188 188 186 183 182 184 186 185 183 178 169 162 162 163 164 164 165 164 161 158 152 144 142 144 144 145 155 167 167 158 154 155 150 148 139 124 107 98 95 98 114 132 142 146 150 157 168 178 187 198 206 210 221 230 235 239 230 217 208 194 180 177 181 183 187 191 194 193 192 195 196 195 198 202 201 203 208 207 207
175 177 178 178 181 184 184 185 184 180 179 184 185 184 183 179 171 165 162 162 163 163 164 164 163 163 155 141 135 137 140 143 151 167 175 168 156 150 142 133 128 127 124 118 110 103 107 120 133 149 164 176 187 196 204 213 221 228 237 242 244 253 251 233 216 205 200 190 185 187 190 191 196 199 198 199 202 204 207 211 210 212 217 220 223
173 174 174 175 178 182 182 183 182 177 179 184 185 184 183 180 175 170 166 164 163 164 166 163 159 162 159 143 132 128 130 133 138 155 173 176 164 150 138 130 127 127 124 123 122 116 114 118 124 137 153 179 199 212 221 228 235 240 247 252 250 259 261 243 222 213 212 204 190 189 193 195 197 201 203 203 204 207 210 214 217 221 225 228 232
170 170 172 174 177 179 180 181 179 177 179 183 183 181 180 177 175 172 169 168 166 165 167 167 162 162 161 149 137 130 129 131 132 138 153 167 171 165 154 142 140 140 132 126 123 119 122 129 134 143 151 163 181 198 213 223 234 244 252 262 264 266 259 237 220 213 213 209 197 193 196 199 199 202 206 207 209 212 214 214 217 223 228 228 230
163 160 162 163 166 170 173 175 175 173 173 172 171 172 172 172 171 166 163 167 173 171 167 163 160 162 168 162 145 134 131 132 132 136 146 157 167 178 188 178 159 152 148 144 136 127 134 143 150 166 178 181 184 188 193 201 216 231 241 252 263 266 254 231 212 207 210 210 206 200 198 200 202 203 205 207 211 216 218 218 215 213 218 220 218
145 145 144 142 146 153 158 161 161 159 157 153 153 155 158 161 162 157 154 159 169 174 170 159 155 164 177 185 172 150 139 136 137 144 162 180 193 207 209 203 192 185 184 190 199 196 190 196 197 194 196 198 197 196 194 196 211 234 249 259 269 272 263 243 217 206 208 211 211 204 201 203 203 202 203 208 212 215 218 220 217 204 201 204 205
127 130 130 132 139 142 143 145 144 145 144 143 143 144 146 152 152 147 148 152 164 178 166 138 123 186 216 209 198 176 159 157 164 178 197 218 241 250 234 221 216 219 227 236 245 246 244 244 246 246 240 232 229 230 232 238 255 271 281 282 282 276 266 252 233 217 211 216 218 210 207 210 208 206 209 213 216 217 220 221 215 200 191 180 186
109 111 114 124 135 139 141 143 144 145 144 141 139 137 138 151 158 159 172 191 218 218 197 124 40 292 271 252 224 202 186 185 197 213 226 235 244 251 251 243 238 239 245 251 253 252 253 258 259 259 261 259 258 257 258 265 273 274 277 278 278 274 267 254 242 234 227 225 224 219 218 221 219 217 217 218 221 223 223 221 209 197 195 190 188
97 97 102 113 126 135 142 145 145 149 151 150 147 147 166 198 205 220 240 255 257 235 213 218 270 267 266 266 256 233 215 213 221 232 240 244 248 252 253 249 246 248 252 255 256 254 255 260 265 267 267 266 264 263 262 264 267 268 268 268 268 268 265 258 249 244 241 237 232 229 229 228 226 228 227 226 227 227 223 219 209 200 202 204 198
94 92 93 100 110 124 136 138 136 141 153 160 163 173 201 219 226 239 249 250 252 236 198 214 240 249 255 257 257 251 240 234 235 240 244 247 251 256 257 255 253 253 258 264 268 269 269 272 276 279 279 276 274 271 272 272 270 268 266 263 263 264 262 259 256 252 250 245 239 237 241 240 235 238 240 235 231 227 221 215 208 203 203 202 193
89 89 90 94 98 105 114 120 121 124 132 140 148 156 168 182 196 211 217 215 217 203 182 203 224 236 240 240 241 245 247 247 248 251 254 255 256 257 258 259 259 260 264 268 268 268 272 278 280 280 282 283 280 277 279 281 278 274 270 266 265 263 261 258 256 255 254 250 244 245 252 252 246 247 251 244 234 227 220 211 203 197 193 191 190
84 86 88 91 95 100 103 108 113 115 118 124 129 132 133 136 138 140 145 146 144 143 151 170 189 198 203 202 201 207 215 233 254 261 265 264 261 257 256 257 258 261 266 270 272 274 278 283 283 282 284 286 285 284 285 285 285 283 280 276 271 265 261 259 257 256 254 253 252 253 257 259 256 253 253 244 233 227 223 215 204 193 186 187 192
80 82 84 86 92 97 99 103 108 112 116 119 119 117 116 120 120 117 117 117 115 116 119 128 142 150 152 148 135 130 155 199 222 234 247 262 268 266 263 263 263 263 266 270 275 278 281 284 285 285 287 289 289 289 288 287 286 285 281 278 274 269 265 263 260 258 256 255 255 256 257 259 256 250 247 239 228 221 215 203 191 186 182 179 182
77 80 82 84 88 91 94 96 99 102 105 104 102 101 101 103 107 110 113 112 108 106 105 108 119 128 128 126 110 91 65 264 247 240 250 265 276 280 280 280 274 269 269 271 273 275 276 278 281 284 284 285 287 289 290 290 289 286 284 281 279 275 270 267 263 261 259 258 255 255 256 253 245 238 230 216 207 203 195 183 178 181 180 177 178
72 76 79 81 84 87 89 90 90 91 92 91 89 89 89 89 92 96 100 100 96 95 96 94 92 95 96 94 95 94 93 277 278 277 274 279 284 282 280 280 279 275 275 277 278 278 278 278 279 281 282 284 287 288 290 291 288 286 284 281 277 274 271 269 265 260 259 256 250 246 244 236 226 217 203 190 191 198 198 197 193 187 189 197 185
70 74 77 80 83 85 86 86 87 87 88 89 88 87 86 85 85 86 87 87 86 85 87 86 82 80 81 83 85 85 79 37 350 339 307 281 280 278 274 277 280 281 281 283 285 285 285 283 281 280 281 283 284 283 283 284 282 282 280 275 271 268 267 267 261 255 251 244 233 226 223 217 206 199 194 191 198 201 197 200 198 190 200 210 181
71 73 76 77 78 79 80 80 80 79 80 82 85 87 88 87 86 85 85 85 83 80 78 78 75 72 73 78 80 74 66 51 33 24 14 337 302 288 280 280 283 286 287 288 291 293 295 296 292 287 286 285 284 284 282 281 279 276 270 268 268 264 264 266 261 250 243 236 224 217 215 209 201 196 193 187 188 187 183 185 185 182 198 202 189
73 73 73 73 73 73 74 74 75 74 74 74 76 77 78 78 79 82 86 91 91 83 75 70 66 61 59 60 63 62 58 53 47 41 36 27 3 336 323 312 304 301 297 294 295 299 304 308 305 301 298 293 291 290 288 285 282 275 265 260 260 258 262 268 261 243 233 227 217 210 207 202 195 190 184 176 174 177 177 177 176 173 173 176 188
75 74 73 72 70 69 70 71 72 73 72 73 74 74 74 75 76 77 81 90 96 99 100 94 82 65 45 31 33 41 41 37 36 35 34 32 26 12 358 346 334 324 316 313 312 308 307 308 307 305 304 300 295 292 291 289 285 280 271 262 259 258 259 261 253 236 224 214 202 193 189 184 179 174 171 168 168 167 162 162 167 169 164 156 156
76 74 72 71 68 67 67 67 68 69 68 69 73 74 74 76 78 79 81 85 88 91 96 98 94 83 70 57 49 44 35 27 26 26 24 22 20 15 9 1 353 344 336 334 332 326 319 315 311 309 307 304 298 292 290 290 290 288 279 266 261 259 255 248 242 231 218 204 190 180 174 170 166 160 155 151 152 154 151 149 148 150 153 152 147
75 72 70 68 66 65 65 64 64 64 63 63 66 67 66 67 69 72 75 77 78 77 75 73 69 63 56 52 48 45 39 31 25 21 19 18 15 13 10 7 4 2 357 349 342 338 333 327 321 318 315 311 307 300 295 293 295 295 287 272 262 257 249 239 229 219 209 197 185 178 176 174 169 161 153 149 149 149 146 142 139 138 135 140 150
75 73 70 68 67 66 64 62 61 60 58 58 59 58 55 54 54 55 57 59 59 56 52 51 48 42 38 36 34 32 30 25 21 19 18 17 16 13 8 3 0 1 360 353 344 339 336 333 330 329 326 322 319 313 308 306 304 300 293 279 262 251 242 229 215 207 199 189 182 178 178 177 172 165 160 154 149 145 140 134 132 130 125 114 95
74 71 68 66 65 64 63 60 58 57 56 56 56 55 52 49 46 44 44 45 45 41 35 31 29 26 22 19 18 16 14 11 9 9 9 10 13 13 8 1 357 355 353 351 346 342 343 341 338 335 331 326 322 316 312 311 309 304 295 274 253 242 234 222 210 201 193 186 182 182 181 178 172 166 161 157 150 143 136 129 124 119 115 112 103
71 68 65 62 60 59 59 58 55 53 53 54 54 52 50 49 46 44 40 36 34 34 29 21 18 15 7 360 356 354 357 358 356 354 355 356 357 0 0 356 352 349 346 344 340 338 340 341 336 333 330 326 323 318 313 308 301 290 270 243 225 219 221 218 209 199 193 187 182 179 176 170 164 161 159 158 154 148 142 135 133 135 135 133 132
64 61 58 57 56 55 54 55 53 49 48 49 48 45 43 45 45 41 35 28 23 23 21 13 8 4 354 345 339 337 341 350 351 346 344 344 343 344 345 345 344 343 339 334 330 328 329 330 330 330 330 329 325 319 312 305 293 275 251 234 222 214 215 215 207 198 193 188 181 174 167 163 161 159 157 154 150 146 143 139 140 146 149 148 151
60 56 52 50 49 48 47 46 44 42 43 47 49 45 41 44 48 42 29 17 4 2 6 2 348 340 334 328 326 325 327 333 335 332 331 333 332 331 330 330 330 331 329 325 321 318 317 319 323 326 330 329 321 312 305 298 286 267 246 232 223 215 211 207 201 196 193 188 179 171 166 164 162 159 155 151 146 142 141 142 146 150 152 157 184
53 49 47 44 42 42 43 40 38 38 42 48 53 52 47 44 44 45 32 6 357 6 6 346 321 320 320 315 314 317 320 321 324 327 331 333 331 328 325 322 321 323 323 319 314 308 307 314 321 328 333 330 320 308 301 292 278 260 244 231 217 207 201 196 193 192 189 184 177 172 168 165 161 156 154 152 149 149 151 151 151 153 154 175 221
43 40 39 38 36 36 35 33 33 36 38 39 39 40 39 31 26 34 50 64 69 73 71 12 310 313 321 324 323 327 331 331 335 341 344 342 338 334 329 325 323 322 321 318 308 297 302 314 321 329 336 331 320 311 303 288 275 257 239 225 212 206 203 199 194 187 180 174 172 170 168 163 158 156 156 155 154 157 159 157 157 161 168 199 230
48 44 41 37 35 35 33 30 31 31 32 31 29 28 29 26 23 33 56 80 87 81 69 49 36 22 21 21 14 8 5 1 1 1 358 353 349 342 338 337 334 330 327 321 304 291 300 312 313 321 330 327 316 311 299 280 270 259 237 217 206 204 203 199 192 183 176 172 171 169 167 164 160 159 159 158 159 161 163 165 169 171 181 206 229
60 56 50 44 37 33 32 32 33 31 28 27 24 21 21 22 19 24 43 67 73 68 59 58 66 71 62 48 35 30 27 20 11 3 357 356 356 354 354 354 350 346 342 329 305 298 307 312 311 317 325 324 318 311 299 282 268 253 239 222 199 193 194 193 187 180 176 174 171 167 164 164 162 160 161 162 164 166 169 174 176 175 186 208 223
71 67 59 53 43 35 34 36 39 38 33 27 24 21 18 17 15 14 22 38 49 52 58 70 80 73 56 42 33 28 22 15 6 356 350 352 356 359 3 5 3 5 7 354 325 316 314 313 316 318 319 322 320 311 301 291 276 257 245 233 209 196 191 186 181 176 173 171 168 164 163 164 163 162 164 166 169 171 170 171 173 177 191 208 220
74 71 59 53 49 44 43 44 46 44 37 29 27 26 21 18 19 21 20 24 28 31 41 64 80 70 46 33 29 23 14 8 3 356 353 356 359 2 9 15 14 11 9 3 350 336 324 317 317 315 316 320 321 318 308 297 286 270 252 235 217 200 185 174 170 170 168 165 164 162 162 161 161 162 166 171 175 172 164 161 169 179 186 194 211
68 68 58 52 54 56 53 53 52 45 40 38 35 32 33 34 33 33 34 34 33 27 27 45 70 70 57 50 48 39 29 23 16 9 8 7 8 17 29 35 30 23 17 11 3 354 344 333 322 315 315 314 315 319 317 307 297 286 265 240 215 193 178 171 168 165 161 158 158 157 157 160 163 165 168 173 180 180 171 165 167 169 175 186 210
61 63 61 60 64 66 61 57 53 47 44 46 44 40 44 48 44 45 47 44 43 43 36 36 50 57 55 57 62 58 49 45 41 37 36 37 42 47 50 47 40 34 26 16 9 4 360 352 340 329 323 314 309 315 318 314 305 286 261 240 216 195 182 171 163 157 153 152 152 153 155 162 169 170 170 175 183 183 172 163 160 161 173 192 220
58 58 63 69 73 74 66 59 55 52 51 53 51 47 50 53 51 52 54 50 49 53 49 41 39 39 39 45 56 61 60 60 59 57 56 59 59 57 52 46 41 38 31 22 18 15 8 1 354 348 343 336 326 316 312 312 302 268 236 217 201 186 170 156 150 151 153 151 150 152 158 168 174 175 174 178 182 175 164 158 156 159 169 206 266
59 56 59 67 76 79 70 61 57 55 55 55 54 49 50 54 53 52 51 50 49 49 46 43 39 33 30 39 52 61 62 61 61 60 61 61 58 53 49 47 46 44 38 30 26 24 21 17 13 12 11 9 0 345 332 323 298 251 220 199 184 172 162 156 159 166 164 159 160 163 169 174 177 177 176 176 173 163 155 153 155 157 162 231 298
67 60 57 62 71 74 67 60 56 54 55 56 55 50 49 51 53 52 51 52 50 46 42 43 39 30 31 41 55 65 67 66 64 63 61 59 56 53 52 52 52 51 47 42 40 39 37 36 34 32 33 35 33 24 14 4 336 226 203 191 180 173 171 173 176 172 168 169 173 174 173 175 176 175 171 167 161 155 152 154 159 162 176 277 294
73 65 58 59 64 66 64 61 55 52 55 57 56 53 52 51 52 54 55 55 54 49 45 43 39 34 38 48 59 68 71 71 68 64 61 59 57 55 54 52 52 52 50 49 50 50 48 48 48 46 44 44 45 43 39 35 39 119 177 179 174 171 171 170 165 164 169 175 174 170 169 169 168 162 160 158 155 152 153 157 157 156 239 294 289
88 76 64 61 63 65 65 65 58 53 55 58 57 57 57 55 55 56 57 57 57 55 51 47 44 45 50 55 61 66 70 71 69 65 62 59 56 54 52 51 50 48 48 50 52 51 49 51 53 53 52 52 52 52 52 53 58 88 143 161 161 159 158 157 158 160 162 161 158 157 157 155 155 159 160 157 153 153 158 160 151 97 331 316 305
129 93 74 68 68 67 65 67 65 59 57 57 58 60 62 62 60 59 58 57 58 57 55 53 54 58 62 66 69 71 71 70 69 67 64 60 54 51 50 50 49 47 48 51 51 51 52 55 56 56 58 60 61 63 67 71 76 85 101 120 132 137 139 140 141 140 137 135 135 136 139 147 156 164 168 167 160 154 159 200 290 336 349 351 350
183 132 93 79 73 67 64 64 64 61 60 60 61 64 67 68 65 62 61 61 60 59 57 57 60 63 67 69 71 72 70 70 72 72 68 60 54 52 51 52 52 52 52 53 53 55 57 60 61 63 65 66 68 71 76 80 84 87 92 100 108 114 116 116 116 117 118 117 107 105 137 176 179 179 184 186 181 164 138 29 1 340 337 347 350
205 184 145 110 89 77 68 62 60 61 62 63 65 68 72 72 69 65 64 64 63 63 62 62 63 64 64 65 67 68 68 68 70 70 64 56 53 55 55 56 59 60 60 60 60 59 59 60 61 62 64 67 69 71 74 79 84 86 87 90 94 96 97 97 97 95 93 89 81 95 188 210 208 203 200 201 204 207 218 307 348 330 330 351 1
220 212 195 167 131 103 81 68 63 63 62 61 64 71 75 74 71 68 65 66 70 71 68 65 65 65 65 65 67 70 70 70 69 69 66 64 64 64 62 61 63 65 65 64 62 60 59 59 59 59 60 62 64 66 68 69 72 75 78 81 85 89 88 85 80 71 88 137 143 158 198 214 218 215 209 209 219 229 235 256 295 308 322 346 1
236 227 217 207 186 154 119 87 72 65 60 56 60 72 85 84 79 73 68 70 77 80 75 69 67 67 68 68 69 71 73 74 74 73 71 70 69 69 68 67 67 66 64 63 60 57 56 54 54 55 56 58 60 63 64 61 58 59 60 60 61 63 60 52 49 52 85 147 158 178 201 207 209 209 209 221 247 256 251 255 263 282 309 323 333
256 237 226 221 213 198 182 147 96 78 70 60 59 72 94 99 91 84 78 77 81 82 76 69 68 70 72 74 74 75 76 77 77 77 77 76 74 71 69 67 66 64 62 60 58 54 52 51 50 50 52 52 53 55 59 60 58 58 59 58 55 49 44 45 59 79 97 120 146 168 173 172 175 184 203 241 273 277 258 249 253 267 292 306 310
264 251 235 227 221 215 208 194 165 126 104 82 70 76 93 104 101 97 91 87 86 84 75 67 68 72 75 78 79 76 75 74 74 74 74 73 70 65 59 54 52 50 47 45 45 46 48 49 49 47 46 45 43 41 43 45 45 43 43 45 43 39 43 60 82 98 108 118 127 135 140 146 158 182 233 279 293 293 280 260 256 261 272 291 311
264 263 248 233 225 223 219 209 197 180 149 122 102 94 99 107 112 115 112 106 105 100 88 77 76 78 81 83 82 79 78 76 74 71 68 66 63 60 54 47 40 36 33 34 38 43 48 48 45 43 43 44 43 43 45 48 51 49 45 45 45 46 52 64 73 79 90 102 114 126 138 151 191 267 292 302 302 296 288 279 269 259 255 269 306
265 269 259 236 223 222 221 217 212 207 192 169 153 140 130 124 127 138 147 146 136 125 116 99 88 86 88 90 89 87 85 84 81 77 72 66 60 57 54 48 38 31 32 37 39 41 46 49 50 54 59 61 62 63 61 62 65 67 65 63 61 60 61 62 61 61 66 71 75 80 67 300 297 297 297 299 298 290 281 275 272 268 263 268 291